This demonstration page uses our WeatherBlox Daily Observations layout. Learn more.

Left ArrowRight Arrow

Hourly Observations for February 27, 2017

Temp ( °F °C ) Dew Point ( °F °C ) Humidity (%) Winds ( mph kmh ) Pressure ( in mb ) Visibility ( mi km ) Precip ( " mm )
12:37 am 00:37 Cloudy with Light Snow 15 -9.4 12 -11.1 88 88 NE 9 15 29.94 1014 3 5 0.00 0.03
12:53 am 00:53 Cloudy with Light Snow 15 -9.4 11 -11.7 84 84 NE 9 15 29.89 1012 3 4 0.01 0.25
1:29 am 01:29 Cloudy with Light Snow 14 -10 11 -11.7 88 88 NE 9 15 29.97 1015 3 4 0.00 0.03
1:39 am 01:39 Cloudy with Light Snow 14 -10 11 -11.7 88 88 NE 10 17 29.97 1015 3 5 0.00 0.03
1:53 am 01:53 Cloudy with Light Snow 14 -10 11 -11.7 88 88 NE 9 15 29.89 1012 4 6 0.00 0.03
2:53 am 02:53 Cloudy 12 -11.1 9 -12.8 87 87 NE 8 13 29.88 1012 7 11 0.00 0.03
3:53 am 03:53 Cloudy 11 -11.7 8 -13.3 88 88 ENE 9 15 29.87 1012 10 16 0.00 0.00
4:53 am 04:53 Cloudy 10 -12.2 7 -13.9 87 87 E 7 11 29.87 1012 10 16 0.00 0.00
5:53 am 05:53 Partly Cloudy 8 -13.3 6 -14.4 92 92 E 6 9 29.87 1011 10 16 0.00 0.00
6:53 am 06:53 Cloudy 8 -13.3 6 -14.4 92 92 ENE 8 13 29.86 1011 10 16 0.00 0.00
7:53 am 07:53 Cloudy with Mist and Fog 9 -12.8 7 -13.9 92 92 ENE 10 17 29.85 1011 5 8 0.00 0.00
8:53 am 08:53 Cloudy 12 -11.1 8 -13.3 84 84 ENE 10 17 29.85 1011 10 16 0.00 0.00
9:53 am 09:53 Cloudy 15 -9.4 10 -12.2 80 80 E 12 19 29.83 1010 10 16 0.00 0.00
10:53 am 10:53 Sunny 18 -7.8 11 -11.7 74 74 E 14 22 29.81 1009 10 16 0.00 0.00
11:53 am 11:53 Mostly Cloudy 21 -6.1 11 -11.7 65 65 E 10 17 29.80 1009 10 16 0.00 0.00
12:53 pm 12:53 Mostly Sunny 22 -5.6 11 -11.7 63 63 E 8 13 29.77 1008 10 16 0.00 0.00
1:53 pm 13:53 Sunny 24 -4.4 10 -12.2 55 55 Calm 29.74 1007 10 16 0.00 0.00
2:53 pm 14:53 Sunny 24 -4.4 11 -11.7 57 57 SSE 3 6 29.75 1007 10 16 0.00 0.00
3:53 pm 15:53 Mostly Sunny 26 -3.3 12 -11.1 55 55 NW 5 7 29.75 1007 10 16 0.00 0.00
4:53 pm 16:53 Mostly Sunny 25 -3.9 12 -11.1 58 58 N 5 7 29.75 1007 10 16 0.00 0.00
5:53 pm 17:53 Sunny 22 -5.6 12 -11.1 66 66 N 3 6 29.76 1008 10 16 0.00 0.00
6:53 pm 18:53 Clear 19 -7.2 11 -11.7 71 71 NNE 5 7 29.77 1008 10 16 0.00 0.00
7:53 pm 19:53 Clear 11 -11.7 8 -13.3 88 88 SE 3 6 29.79 1009 10 16 0.00 0.00
8:53 pm 20:53 Clear 12 -11.1 8 -13.3 84 84 E 5 7 29.79 1009 10 16 0.00 0.00
9:53 pm 21:53 Cloudy 13 -10.6 9 -12.8 84 84 ESE 3 6 29.78 1009 10 16 0.00 0.00
10:53 pm 22:53 Clear 14 -10 10 -12.2 84 84 E 3 6 29.77 1008 10 16 0.00 0.00
11:53 pm 23:53 Mostly Cloudy 14 -10 10 -12.2 84 84 ENE 6 9 29.75 1008 10 16 0.00 0.00

Powered by AerisWeather